This is the latest recevied weather packets stored in our database for station/object KI6PPU. If no packets are shown the sender has not sent any weather packets the latest 1 day(s).
| Time | Temp. | Humidity | Pressure | Rain* | Wind** | Luminosity | Snow |
|---|---|---|---|---|---|---|---|
| 1778030071 | 15° C | 85% | 1017.9 hPa | 0 mm | - | 65 W/m² | - |
| 1778029767 | 15° C | 86% | 1017.8 hPa | 0 mm | - | 69 W/m² | - |
| 1778029466 | 15° C | 85% | 1017.8 hPa | 0 mm | - | 75 W/m² | - |
| 1778029162 | 15° C | 86% | 1017.8 hPa | 0 mm | - | 57 W/m² | - |
| 1778028860 | 15° C | 86% | 1018.1 hPa | 0 mm | - | 43 W/m² | - |
| 1778028555 | 15° C | 85% | 1017.9 hPa | 0 mm | - | 38 W/m² | - |
| 1778028253 | 15° C | 85% | 1018 hPa | 0 mm | - | 34 W/m² | - |
| 1778027949 | 14.44° C | 85% | 1017.7 hPa | 0 mm | - | 35 W/m² | - |
| 1778027645 | 15° C | 85% | 1017.7 hPa | 0 mm | - | 35 W/m² | - |
| 1778027038 | 15° C | 86% | 1017.8 hPa | 0 mm | - | 33 W/m² | - |
| 1778026431 | 15° C | 86% | 1017.9 hPa | 0 mm | - | 34 W/m² | - |
| 1778026128 | 15° C | 85% | 1017.7 hPa | 0 mm | - | 34 W/m² | - |
| 1778025826 | 15° C | 86% | 1017.7 hPa | 0 mm | - | 34 W/m² | - |
| 1778025220 | 15° C | 86% | 1017.6 hPa | 0 mm | - | 34 W/m² | - |
| 1778023404 | 15° C | 83% | 1017.5 hPa | 0 mm | - | 39 W/m² | - |
| 1778021587 | 15.56° C | 79% | 1017.6 hPa | 0 mm | - | 49 W/m² | - |
| 1778020980 | 16.11° C | 77% | 1017.5 hPa | 0 mm | - | 115 W/m² | - |
| 1778018554 | 15.56° C | 81% | 1017.9 hPa | 0 mm | - | 144 W/m² | - |
| 1778018252 | 15.56° C | 81% | 1017.8 hPa | 0 mm | - | 138 W/m² | - |
| 1778017647 | 15.56° C | 80% | 1017.9 hPa | 0 mm | - | 125 W/m² | - |
| 1778015223 | 15° C | 80% | 1018.1 hPa | 0 mm | - | 139 W/m² | - |
| 1778014617 | 15° C | 82% | 1017.9 hPa | 0 mm | - | 143 W/m² | - |
| 1778014315 | 15° C | 81% | 1017.8 hPa | 0 mm | - | 141 W/m² | - |
| 1778012495 | 15° C | 84% | 1018 hPa | 0 mm | - | 150 W/m² | - |
| 1778010980 | 15° C | 82% | 1018.1 hPa | 0 mm | - | 219 W/m² | - |
* Rain latest hour (hover to see other rain measurements)
** Current wind speed in m/s (hover to see current wind gust speed)